Regional Weather Roundup
Issued by NWS

Home | Current Version | Previous Version | Text Only | Print | Product List | Glossary On
Versions: 1 2 3 4 5 6 7 8 9 10 11 12 13 14 15 16 17 18 19 20 21 22 23 24 25 26 27 28 29 30 31 32 33 34 35 36 37 38 39 40 41 42 43 44 45 46 47 48 49 50
000
ASUS43 KDMX 191406
RWRIA

WEATHER ROUNDUP FOR IOWA
NATIONAL WEATHER SERVICE DES MOINES IA
800 AM CST SUN FEB 19 2017

NOTE: "FAIR" INDICATES FEW OR NO CLOUDS BELOW 12,000 FEET WITH NO
SIGNIFICANT WEATHER AND/OR OBSTRUCTIONS TO VISIBILITY.

* - THESE STATIONS ARE NOT NWS STATIONS...THUS NOT UNDER NWS
QUALITY CONTROL.  THEY ALSO DO NOT REPORT WEATHER SUCH
AS PRECIPITATION OR FOG.

IAZ001>003-012>014-020>022-031>034-043>046-191500-
   NORTHWEST IOWA

CITY           SKY/WX    TMP DP  RH WIND       PRES   REMARKS
CARROLL *      CLOUDY    36  36 100 CALM      29.91S
CHEROKEE *     CLEAR     37  34  87 CALM      29.89R
DENISON *      PTCLDY    43  37  81 SE5       29.89R
LE MARS *      CLEAR     39  34  81 S5        29.86S
SHELDON *      CLOUDY    41  39  93 SE9G16    29.84S
SIOUX CITY     CLOUDY    39  33  79 SE10      29.86R WCI  32
SPENCER        CLOUDY    37  36  96 SE8       29.89R WCI  31
STORM LAKE *   CLOUDY    36  32  87 SE6       29.89R WCI  31
$$

IAZ055>058-069>071-079>083-090>094-191500-
   SOUTHWEST IOWA

CITY           SKY/WX    TMP DP  RH WIND       PRES   REMARKS
ATLANTIC *     CLOUDY    34  34 100 CALM      29.93R
CLARINDA *     CLOUDY    34  34 100 CALM      29.96R
COUNCIL BLFS * CLOUDY    45  43  93 SE8       29.90R
CRESTON *      CLEAR     43  39  87 S5        29.97R
HARLAN  *      PTCLDY    39  39 100 CALM      29.95R
LAMONI         CLEAR     45  39  79 S10       29.96R
RED OAK *      CLOUDY    37  34  87 CALM      29.93R
SHENANDOAH *   CLOUDY    43  43 100 SE8       29.94R FOG
$$

IAZ047>049-059>061-072>074-084-191500-
   CENTRAL IOWA

CITY           SKY/WX    TMP DP  RH WIND       PRES   REMARKS
AMES           PTCLDY    33  33 100 SE3       29.96R FOG
ANKENY *       CLOUDY    37  34  87 CALM      29.98R
BOONE *        CLOUDY    37  37 100 SE8       29.94R WCI  31
CHARITON *     CLEAR     41  34  75 SE6       29.97R
DES MOINES     PTCLDY    44  33  65 SE6       29.96R
GRINNELL*      PTCLDY    39  37  91 SE6       29.99R WCI  35
KNOXVILLE *    PTCLDY    43  32  65 SE7       29.96R
MARSHALLTOWN   FOG       32  32 100 SE7       29.96S VSB 1   WCI  26
NEWTON *       PTCLDY    39  36  87 SE8       29.97R FOG     WCI  34
PELLA *        MOCLDY    39  34  82 SE5       29.99R
PERRY *          N/A     36  33  90 SE7       29.94R WCI  30
$$

IAZ004>006-015-016-023>025-035-036-191500-
   NORTH CENTRAL IOWA

CITY           SKY/WX    TMP DP  RH WIND       PRES   REMARKS
ALGONA *       PTCLDY    43  41  93 S15G21    29.93R
CLARION *      CLEAR     39  39 100 SE9       29.94R WCI  33
ESTHERVILLE    FOG       32  32 100 S9        29.90R VSB 1/2 WCI  24
FORT DODGE *   CLEAR     39  36  87 E6        29.94R WCI  35
MASON CITY     CLEAR     32  32 100 SE3       29.97R FOG
FOREST CITY *    N/A     34  34 100 SE5       29.95R FOG     WCI  30
IOWA FALLS *     N/A     35  34  97 E3        29.97R FOG
$$

IAZ007>011-017>019-026>030-037>042-050>054-066-191500-
   NORTHEAST IOWA

CITY           SKY/WX    TMP DP  RH WIND       PRES   REMARKS
CEDAR RAPIDS   MOSUNNY   33  33 100 E7        29.99R WCI  27
CHARLES CITY * CLOUDY    34  34 100 E8        29.98S FOG     WCI  27
CLINTON *      SUNNY     34  31  88 NE5       30.03R WCI  30
DECORAH *      CLOUDY    34  34 100 SE3       29.98S
DUBUQUE        SUNNY     37  33  85 SW3       30.02R
MONTICELLO *   SUNNY     30  30 100 CALM      30.02R
OELWEIN *      CLEAR     36  36 100 E8        30.00R WCI  29
WATERLOO       CLOUDY    30  29  96 E3        29.99R FOG
$$

IAZ064-065-067-068-078-191500-
   EAST CENTRAL IOWA

CITY           SKY/WX    TMP DP  RH WIND       PRES   REMARKS
DAVENPORT      SUNNY     37  35  92 E3        30.02R FOG
IOWA CITY      CLOUDY    33  30  88 CALM      30.02R
MUSCATINE *    CLOUDY    32  30  93 CALM      30.03R
QUAD CITIES    SUNNY     33  30  88 CALM      30.02R
$$

IAZ062-063-075>077-085>089-095>099-191500-
   SOUTHEAST IOWA

CITY           SKY/WX    TMP DP  RH WIND       PRES   REMARKS
BURLINGTON     SUNNY     42  36  79 E3        30.00R
FAIRFIELD *    SUNNY     39  34  81 S5        29.99R
KEOKUK *       SUNNY     39  36  87 CALM      30.00R
OTTUMWA        CLOUDY    40  35  83 S5        29.99R
$$

ABBREVIATIONS USED IN REMARKS
   TC - TEMPERATURES IN CELSIUS
  WCI - WIND CHILL INDEX
   HX - HEAT INDEX
  VSB - VISIBILITY
$$




USA.gov is the U.S. government's official web portal to all federal, state and local government web resources and services.